RH
37 38 38 39 43 41 37 37 54 56 54 61 51 46 42 37 40 40 41 39 43 40 36 34 32 38 39 42 41 35 37 37 36 36 34 33 33 33 36 38 36 41 46 46 62 72 71 83 80 77 81 81 87 83 79 80 78 82 81 79 78 74 73 67 61 56 55 59 57 60 57 56 62 60 58 58 60 60 60 58 59 60 55 52 63 67 70 74 68 66 63 65 68 70 74 71 70
42 42 41 45 42 39 37 36 58 58 54 62 45 40 39 38 41 40 43 41 46 43 34 31 30 34 39 45 40 37 38 32 29 28 26 31 30 29 34 36 35 39 44 46 59 71 76 82 78 77 79 80 86 83 81 81 80 85 80 77 77 71 73 67 61 58 55 59 59 58 55 58 62 61 59 59 60 57 55 56 57 59 57 54 60 62 68 73 66 64 63 65 65 70 75 71 75
44 41 38 41 37 35 37 39 57 57 56 57 39 37 39 41 40 39 44 42 40 35 32 32 34 38 39 43 40 39 35 25 26 26 25 28 28 31 34 33 34 39 43 46 54 68 76 80 78 77 79 80 85 84 83 82 82 83 79 79 75 69 70 64 61 60 59 58 58 58 57 59 59 58 59 59 58 54 55 57 57 57 57 56 56 57 65 70 63 61 63 64 61 69 74 71 77
43 41 35 33 34 35 40 48 54 53 54 49 37 38 40 40 39 40 42 39 35 30 34 36 37 38 36 36 33 32 29 27 29 27 25 25 28 33 35 31 31 37 42 47 52 64 72 78 80 78 79 81 84 85 83 82 82 81 80 79 75 72 68 62 60 58 61 59 56 59 59 59 59 59 59 60 59 55 57 59 58 58 56 56 56 55 60 65 62 58 60 61 60 69 71 71 75
42 39 36 31 36 38 41 49 49 50 51 43 37 35 35 36 38 41 37 33 34 31 35 37 34 32 32 30 28 28 21 25 31 26 24 25 29 31 31 30 32 37 42 47 51 60 69 76 82 80 79 82 83 85 83 81 84 83 80 78 76 74 68 63 60 57 60 60 57 57 57 58 59 60 59 60 60 57 59 60 58 59 58 57 57 54 55 59 59 57 59 61 60 67 69 68 73
36 32 33 32 35 36 40 47 45 45 40 34 34 32 32 35 38 39 32 29 33 35 35 35 33 31 31 26 25 26 18 23 28 27 28 28 30 29 28 29 35 39 42 48 50 58 67 74 82 82 80 82 83 85 84 82 85 85 80 79 78 73 70 65 60 59 59 58 57 55 57 61 60 59 60 60 59 58 58 62 59 59 61 59 58 56 55 55 57 58 60 61 60 66 69 65 70
31 29 29 30 31 34 44 46 40 35 32 32 33 32 33 35 34 32 28 26 31 37 38 37 34 31 28 24 22 21 20 22 23 26 30 30 32 32 30 32 39 38 41 47 50 57 66 74 82 83 81 83 84 86 85 82 85 85 82 83 80 75 73 67 61 61 60 59 56 55 59 62 61 59 61 62 61 61 61 64 61 59 61 59 60 58 55 57 61 64 61 59 59 62 69 65 65
29 30 27 30 31 35 42 40 35 29 28 31 31 32 34 34 32 27 23 20 21 27 33 36 35 29 24 25 24 17 21 24 22 25 28 30 33 37 37 36 38 38 41 45 50 59 69 76 82 85 83 85 86 86 85 82 85 83 84 85 81 78 76 67 62 63 63 63 59 57 61 60 60 59 59 63 63 64 67 65 60 59 58 57 62 62 58 61 64 67 65 60 59 56 64 68 63
24 26 27 28 28 32 37 33 29 24 24 28 27 28 26 28 29 26 23 17 16 19 22 28 31 31 24 25 23 15 24 29 25 24 27 29 29 36 39 38 37 37 41 44 50 59 72 78 82 88 86 87 88 86 85 83 85 83 84 85 81 80 77 69 63 64 64 64 61 59 60 59 61 59 59 63 63 66 68 62 58 59 57 57 63 67 64 64 66 68 68 64 62 57 62 68 63
22 23 28 28 25 29 32 27 23 21 23 24 22 21 18 20 23 25 27 23 18 17 21 24 26 29 24 23 21 18 28 29 24 23 27 29 28 34 36 37 38 37 42 45 51 58 71 79 81 89 88 89 89 87 85 83 86 86 84 83 80 79 78 71 63 64 63 62 63 62 63 62 63 62 61 63 63 66 68 62 60 59 57 58 59 66 68 66 68 68 69 66 63 59 60 67 64
24 22 24 27 27 27 25 23 20 19 17 15 17 17 15 18 20 21 24 23 17 16 23 26 24 26 23 21 19 20 27 25 25 27 27 29 30 33 32 35 39 40 42 47 54 57 68 81 85 90 90 90 89 87 85 84 88 88 83 79 80 79 79 74 66 66 62 60 63 62 62 63 65 65 63 65 64 64 68 67 66 61 58 61 57 60 67 67 67 65 65 63 63 59 57 66 65
26 24 23 25 25 23 21 21 18 15 13 11 16 18 15 15 18 20 20 20 17 17 23 23 21 22 23 22 17 17 24 26 29 29 28 30 29 31 33 34 40 43 44 49 55 56 64 78 85 89 90 90 88 85 85 86 88 88 83 78 79 78 79 77 70 69 64 62 63 60 59 61 63 64 63 63 64 61 65 71 70 64 59 61 59 57 60 63 61 59 58 56 58 54 53 65 68
23 24 24 24 22 21 20 19 17 15 14 15 18 19 16 15 18 20 20 19 17 20 22 21 19 21 23 21 16 15 20 22 25 28 29 31 29 31 34 35 42 48 49 53 56 57 60 69 79 85 88 89 86 82 82 85 87 87 83 79 80 79 79 79 74 72 68 64 66 65 60 62 63 63 64 62 62 61 62 70 71 65 61 60 61 59 58 58 58 59 58 55 56 52 56 67 67
21 21 22 23 21 20 19 17 15 14 14 17 20 19 16 17 20 19 20 19 17 20 21 20 20 22 24 21 20 19 21 21 22 27 28 31 34 33 34 37 44 50 53 56 59 59 59 62 69 76 82 84 83 82 82 83 85 86 83 79 81 82 79 79 77 74 72 67 70 72 66 68 69 66 67 65 61 61 63 67 70 66 62 61 60 60 59 59 61 64 63 58 58 54 59 67 65
19 18 20 21 19 18 19 17 15 14 13 18 22 20 17 18 22 20 19 20 19 19 19 20 20 22 26 25 26 24 24 26 25 26 26 29 33 36 39 40 42 48 53 55 57 59 59 59 60 65 73 77 77 79 81 82 82 81 82 82 82 83 80 79 78 75 74 70 70 75 73 72 74 70 70 71 64 63 67 66 69 67 62 64 61 60 62 62 63 66 65 63 62 57 58 64 63
18 16 18 20 18 16 17 15 14 16 14 16 19 19 19 19 23 22 21 23 22 19 19 20 20 23 26 26 28 26 27 30 29 28 28 27 29 34 37 38 37 40 49 54 55 56 58 58 57 57 62 70 71 72 75 77 79 77 80 84 83 83 82 81 81 77 75 73 71 76 78 75 75 74 73 76 69 65 68 66 69 69 61 63 64 63 63 64 65 66 65 64 64 60 59 63 62
16 16 18 17 15 15 15 14 16 18 15 15 16 18 21 20 20 20 19 22 22 22 22 21 21 23 25 26 27 27 30 30 31 31 30 30 29 30 30 32 33 33 39 47 51 52 54 56 56 54 55 61 65 67 69 72 76 75 77 83 84 84 86 85 84 81 78 76 75 76 78 76 75 75 76 78 73 66 66 65 70 71 62 60 66 66 64 65 66 66 64 62 62 61 62 64 63
15 15 17 15 14 16 16 16 18 19 17 17 16 17 21 21 21 18 18 21 23 25 26 23 22 23 24 27 27 28 30 31 31 31 31 32 31 31 31 31 32 32 33 36 42 47 50 53 55 53 52 52 56 64 68 70 75 77 79 83 84 85 86 86 84 82 80 79 78 79 78 73 72 74 77 77 73 68 65 65 69 72 64 59 65 65 65 67 65 66 66 62 61 63 65 65 66
14 14 15 15 16 17 18 18 18 19 18 18 16 17 21 23 22 18 20 26 27 30 31 26 25 25 24 26 27 28 30 31 31 31 32 33 33 33 33 35 35 36 37 36 37 40 43 48 51 52 51 50 49 53 62 70 74 78 81 82 83 83 83 83 80 76 77 79 77 78 74 68 69 70 74 76 72 69 67 66 67 72 68 59 61 62 65 69 68 66 65 65 63 66 70 64 64
14 14 16 18 16 15 19 17 17 19 19 18 16 18 22 22 20 19 22 27 30 33 33 30 29 26 24 25 26 28 29 30 31 31 32 32 33 34 35 37 38 40 42 42 41 39 40 41 44 48 50 52 51 48 52 64 71 74 77 79 79 80 81 80 77 74 73 75 73 72 68 64 66 66 70 74 72 69 70 70 67 72 76 69 62 60 61 65 67 67 66 68 65 68 72 63 62
16 16 17 18 14 15 20 17 17 19 19 19 18 19 23 21 20 22 23 28 32 33 31 30 29 25 23 23 24 25 27 29 30 31 31 31 32 34 34 36 38 42 43 44 45 45 44 43 41 42 45 50 53 52 49 55 64 67 70 72 74 75 78 77 74 74 74 73 69 66 64 64 65 64 65 70 71 70 72 74 71 73 78 76 71 66 62 62 64 64 68 68 65 70 69 62 65
17 17 18 18 15 17 20 16 19 21 18 20 22 23 23 20 21 23 25 31 34 30 28 28 25 22 21 21 21 23 24 26 28 29 29 30 31 32 33 35 36 39 42 44 45 46 48 47 45 42 43 45 49 53 52 52 56 61 63 65 68 70 73 75 71 72 74 73 70 63 62 65 65 65 63 65 69 69 72 76 75 75 75 73 74 73 66 64 64 60 64 65 65 72 68 64 65
19 20 17 18 17 18 19 17 21 22 20 23 25 24 22 21 24 23 25 29 29 26 26 25 22 21 20 20 20 20 21 22 24 25 26 26 27 29 31 33 35 36 39 41 42 44 46 46 46 45 43 44 45 49 53 52 52 56 60 61 64 66 70 71 69 71 72 71 71 64 60 64 64 64 63 64 69 69 70 74 75 75 72 69 69 70 67 66 65 61 61 61 63 72 72 66 60
22 23 19 19 18 17 16 18 21 20 20 23 22 22 21 23 25 23 24 25 23 23 22 22 21 19 18 19 20 21 21 21 22 23 24 23 23 25 27 29 31 33 35 38 39 41 43 43 44 45 46 46 45 44 48 51 52 52 55 60 62 64 68 71 70 71 72 70 72 68 61 61 61 62 63 63 69 69 63 67 73 72 70 67 63 62 64 65 65 62 60 61 65 71 71 65 56
24 23 19 17 16 14 14 17 19 19 19 20 20 22 21 21 23 23 25 23 20 20 19 19 17 17 18 19 19 20 21 21 22 23 23 23 23 23 24 25 26 27 29 33 36 38 40 41 41 42 45 48 47 45 44 46 50 51 52 57 59 61 64 67 69 70 71 71 72 71 64 60 56 58 63 62 68 68 61 65 69 68 67 64 59 56 57 63 65 63 63 66 68 68 66 62 55
28 27 21 14 12 13 15 17 17 18 18 17 20 23 22 20 22 25 25 23 20 18 18 18 17 17 18 18 20 20 20 21 22 22 23 24 24 25 25 26 26 26 27 28 31 33 35 39 40 39 41 46 48 47 47 46 46 48 49 52 55 59 61 62 65 66 67 68 69 71 70 66 61 59 63 62 66 69 63 65 66 63 62 60 59 55 52 62 67 64 65 68 66 63 61 58 55
28 28 21 13 12 13 14 15 16 19 19 17 19 23 23 21 24 26 25 23 20 19 19 18 18 18 18 19 20 20 20 21 22 22 23 24 24 25 26 28 28 28 28 28 29 30 30 35 39 38 38 42 45 47 49 49 47 47 47 48 50 54 58 59 61 63 63 64 65 69 72 72 69 65 64 64 66 70 67 66 64 60 59 58 58 53 49 60 66 61 63 66 63 60 56 53 52
27 25 23 17 14 13 12 14 15 17 20 18 18 22 23 23 26 27 25 23 20 19 19 19 19 19 19 19 19 20 20 20 22 22 22 23 25 25 26 28 28 29 30 30 30 31 29 32 35 35 37 39 41 44 47 49 49 49 49 48 49 50 54 57 57 59 60 60 61 64 68 70 71 67 66 67 68 70 69 67 64 61 59 56 55 50 48 56 61 58 61 63 59 56 52 48 46
23 22 24 18 15 15 13 13 15 16 17 18 19 23 26 27 28 26 23 22 19 19 19 19 19 19 19 19 19 19 20 20 21 22 23 23 25 25 26 28 29 30 31 31 31 31 30 33 35 33 36 37 39 42 43 46 48 49 51 50 49 50 52 54 55 55 56 57 57 60 64 67 69 66 64 67 69 68 68 68 66 63 60 55 52 50 48 53 56 55 59 60 55 52 48 43 41
20 21 21 15 15 19 16 14 14 15 16 19 21 23 27 28 26 25 23 21 19 19 19 19 19 19 19 19 19 19 20 21 21 22 23 23 24 25 26 29 30 30 32 32 32 31 29 32 36 35 35 36 38 40 41 44 46 46 49 50 50 50 51 52 53 54 54 54 55 57 60 63 65 66 64 64 67 68 67 67 67 64 60 56 53 51 49 50 52 52 55 57 52 47 43 38 38
21 23 20 11 11 14 17 19 15 15 16 17 20 20 26 29 25 24 23 21 20 19 19 19 19 19 19 19 19 19 19 21 21 22 23 24 25 25 27 29 29 29 31 32 32 32 30 31 35 36 35 36 37 40 41 42 45 45 46 49 50 52 52 52 53 54 54 53 53 53 57 61 64 67 67 63 65 69 67 65 66 65 61 58 55 52 50 50 49 50 52 52 48 43 40 35 35
16 19 17 12 11 11 16 22 20 19 17 16 19 18 23 29 26 23 23 20 20 20 20 20 20 20 20 20 19 19 20 21 21 21 21 23 23 24 25 27 28 27 28 31 32 32 30 30 35 36 35 35 36 40 43 43 44 44 44 47 49 52 53 52 53 54 54 54 54 53 54 57 62 67 69 66 66 69 68 64 63 64 62 59 55 53 52 50 46 46 47 46 44 40 38 34 33
10 14 15 14 15 13 15 21 24 22 18 19 21 19 22 28 26 22 22 22 21 21 21 21 21 21 20 20 20 19 20 21 21 21 21 22 23 23 23 25 25 24 25 27 30 32 31 30 33 36 37 36 35 38 43 45 44 44 44 46 48 50 50 50 51 53 54 54 54 54 54 54 56 62 66 67 66 66 67 64 61 62 63 60 55 53 53 50 45 44 44 42 40 37 35 32 31
14 16 13 12 14 14 14 17 24 24 21 21 21 21 22 25 26 23 22 22 21 22 22 22 22 22 21 21 21 20 21 22 22 22 22 22 22 22 22 24 25 23 24 23 24 28 30 30 32 34 35 36 36 37 41 44 44 44 45 46 47 47 49 51 52 52 53 55 55 55 56 57 56 59 63 66 64 63 64 64 61 60 62 61 56 53 53 50 45 42 42 41 37 34 33 32 31
27 24 17 16 18 19 16 14 24 28 24 22 19 21 24 25 25 23 23 22 21 22 22 22 22 21 22 22 22 22 22 23 22 22 21 21 20 20 20 21 22 21 23 24 24 25 26 28 31 33 34 33 35 37 40 44 43 44 46 46 47 47 47 51 54 54 53 52 53 55 57 58 59 59 62 64 65 64 62 61 61 60 60 61 58 54 52 50 46 43 42 41 38 34 32 32 31
34 32 29 29 23 20 15 11 26 32 26 21 16 18 22 24 26 24 23 22 21 23 22 23 22 22 23 23 24 24 24 23 22 22 21 20 20 19 19 19 19 19 19 22 24 25 26 26 29 34 35 34 35 36 39 42 42 44 46 46 48 48 48 50 55 57 55 54 55 57 58 59 60 62 62 63 64 65 64 61 59 58 58 59 59 55 53 50 47 45 43 41 40 36 33 34 33
36 35 31 27 19 16 11 11 28 33 26 19 14 18 22 23 26 24 23 22 22 23 23 25 24 24 24 25 26 25 24 24 22 22 21 20 20 20 20 19 18 18 18 19 20 23 25 26 29 31 33 34 36 37 40 42 43 43 45 46 47 49 51 51 53 55 58 62 63 64 65 63 62 64 65 65 65 64 65 63 60 58 57 57 58 56 54 52 48 46 44 43 43 40 35 35 35
39 33 21 15 15 14 10 16 29 28 29 27 16 21 25 23 25 24 23 23 23 24 25 27 26 25 25 25 27 25 23 24 23 22 20 20 20 20 19 19 17 16 16 16 18 20 22 26 29 31 32 34 35 37 41 42 41 43 45 46 45 48 51 51 52 54 59 65 68 69 72 71 69 69 68 67 66 65 66 65 62 59 57 56 57 56 54 53 50 48 46 44 44 43 38 37 37
34 23 15 15 16 15 13 22 30 25 29 29 20 26 25 20 25 26 24 24 24 27 28 28 28 27 27 26 26 26 24 24 23 21 21 20 20 20 19 19 18 17 16 15 15 18 21 24 27 31 33 33 34 35 39 41 39 42 46 47 46 46 49 50 52 55 57 64 71 74 77 75 71 72 73 72 70 68 68 66 63 60 58 57 56 56 55 54 52 50 49 45 44 45 40 38 39
24 16 16 18 17 18 18 21 25 22 24 27 28 35 27 19 27 28 25 25 26 28 29 29 29 29 29 27 26 27 26 25 23 21 20 20 20 20 20 20 19 19 19 17 16 17 20 24 26 29 32 33 35 34 36 39 37 38 42 46 49 47 48 49 51 53 51 55 62 67 73 73 67 69 73 75 74 74 74 71 66 62 60 58 56 56 55 54 53 51 50 46 43 46 43 40 42
20 21 20 20 18 19 19 18 21 19 25 37 40 33 22 22 33 32 27 28 28 28 28 28 29 28 28 28 27 27 26 24 24 22 20 20 20 21 21 20 20 19 18 18 18 18 20 24 27 29 32 32 33 33 34 35 34 33 33 36 42 44 46 48 49 49 47 49 52 53 60 64 64 67 68 71 74 76 77 74 70 66 62 60 57 57 56 54 53 52 51 49 44 45 43 41 43
18 23 21 19 19 20 22 23 23 18 21 37 39 24 15 20 30 33 32 32 30 29 31 30 29 29 29 30 28 27 26 23 22 22 22 21 21 21 21 19 18 16 16 17 19 20 22 25 28 30 32 32 32 33 33 34 32 31 30 32 35 38 42 46 49 50 49 50 51 51 52 54 59 65 66 68 72 74 76 74 72 70 66 63 60 58 56 54 53 51 51 50 47 44 43 41 42
17 21 21 21 21 24 26 25 25 21 16 25 30 25 20 17 19 28 35 34 32 31 33 33 30 30 30 30 29 28 27 26 25 24 23 22 21 20 19 17 16 15 16 18 19 20 22 24 29 31 31 30 31 32 33 34 34 31 32 34 36 39 41 43 47 49 50 52 53 54 54 55 58 61 63 65 67 70 74 74 74 73 70 68 63 60 58 55 53 52 51 51 49 45 42 40 41
22 19 21 21 21 23 24 25 26 21 16 20 26 29 27 20 17 27 35 33 32 34 34 34 32 31 31 30 29 27 25 25 27 27 24 22 21 19 18 17 16 16 18 21 21 22 23 25 29 31 31 31 31 33 32 33 35 35 34 35 36 39 42 44 46 47 50 54 57 57 56 57 60 62 64 65 65 67 71 73 74 74 74 73 69 64 61 58 55 52 51 51 50 47 43 41 40
21 19 25 25 27 30 26 26 26 19 19 22 20 21 22 18 15 25 35 35 34 37 37 36 34 32 32 30 28 25 22 22 24 25 23 20 19 18 17 17 17 18 21 24 25 26 27 28 31 33 33 33 32 33 33 33 36 36 37 37 37 38 40 43 46 48 51 55 59 61 60 60 61 63 65 65 67 69 70 70 72 73 74 74 73 71 66 62 58 53 52 51 50 48 45 42 40
21 22 27 27 29 32 29 26 23 19 22 21 14 11 15 18 13 16 30 37 36 38 38 36 35 33 31 28 25 22 18 19 20 20 19 16 16 16 16 16 19 22 24 26 28 29 29 30 33 35 34 34 33 33 34 35 36 37 38 38 39 39 40 42 44 47 49 52 57 63 67 68 67 64 64 66 69 72 72 72 72 73 72 70 70 71 68 65 61 56 53 51 51 50 46 44 42
25 22 20 20 17 16 20 20 17 17 20 17 12 9 15 24 17 14 32 45 44 43 40 37 35 33 30 26 23 19 15 16 17 17 16 15 15 15 14 15 19 23 25 26 28 30 30 31 34 36 36 35 35 34 35 36 37 39 39 40 40 40 41 42 43 45 46 49 53 58 64 70 76 75 72 72 73 74 76 77 77 76 73 70 70 68 65 64 63 59 56 53 52 52 49 46 44
23 18 15 18 15 10 13 14 14 21 21 15 11 10 18 25 21 25 43 51 48 46 43 39 36 32 28 24 20 18 16 16 16 16 16 15 15 16 17 20 23 27 28 28 29 30 31 33 35 38 39 37 36 35 37 38 39 40 40 41 41 42 42 43 43 45 46 48 50 54 58 65 76 84 83 81 77 74 76 78 81 81 78 74 71 69 66 64 62 60 58 56 55 53 52 49 46
17 18 18 23 22 20 22 21 22 24 20 15 11 16 24 23 21 31 40 42 42 43 38 33 31 28 24 20 18 18 16 15 16 16 15 15 17 19 21 24 27 29 29 29 30 31 32 33 35 39 41 40 37 36 38 40 41 42 42 42 43 44 45 45 44 45 46 48 49 52 56 60 65 72 79 83 80 78 77 75 76 80 83 81 77 72 68 64 61 60 58 58 57 55 54 53 49
19 21 23 27 29 35 39 32 28 27 22 18 14 21 28 22 24 34 34 34 37 37 32 28 27 25 21 19 17 17 15 15 15 15 15 18 21 22 24 26 28 29 30 31 31 31 32 33 36 41 43 40 37 36 37 40 43 44 45 45 45 45 47 47 47 47 47 48 50 51 53 57 59 60 66 72 75 78 81 80 77 75 77 81 83 82 76 71 66 62 59 58 57 56 55 55 53
22 19 21 25 27 37 43 35 34 37 31 25 22 27 30 25 30 35 32 33 34 30 26 24 23 21 19 19 18 16 14 13 14 15 18 21 22 24 26 28 29 30 30 31 32 33 33 33 36 43 45 41 37 36 38 41 44 47 48 47 47 48 49 50 49 49 49 49 50 51 51 54 56 57 59 62 65 69 74 81 85 81 75 72 77 83 85 83 77 70 65 60 58 57 56 56 56
18 15 21 25 22 29 36 33 33 37 37 33 28 26 21 19 30 36 34 33 28 24 24 22 21 19 18 19 17 15 14 13 14 17 21 23 23 25 27 28 29 30 31 32 32 32 33 35 41 46 45 40 36 37 40 42 45 48 50 49 50 51 52 53 52 51 51 50 50 51 52 52 53 55 58 60 63 66 68 73 79 83 83 78 73 76 83 88 88 83 78 71 65 61 58 57 56
16 19 25 25 22 27 35 34 27 28 35 32 25 25 20 18 28 34 34 31 22 20 24 21 18 19 20 19 15 14 14 15 18 21 22 23 25 26 27 29 30 30 31 33 35 39 44 50 53 49 43 39 38 40 42 44 48 50 51 50 50 53 55 56 55 53 52 52 52 52 52 53 54 55 59 61 64 67 70 71 73 76 82 84 82 79 81 86 90 89 87 83 79 72 67 62 59
23 28 29 24 24 27 30 33 33 36 42 35 26 32 32 29 31 29 26 27 23 21 22 19 17 18 19 17 14 14 16 17 19 20 21 22 23 25 27 28 30 33 39 45 50 54 55 55 51 44 39 40 42 43 45 48 51 51 51 50 51 54 57 58 57 55 55 55 54 55 55 56 57 58 59 62 65 67 68 71 74 76 79 83 85 85 84 85 87 88 86 84 81 77 73 68 64
29 30 30 28 34 36 30 33 45 55 60 49 36 37 37 33 31 28 28 29 25 21 18 17 18 19 20 19 17 16 16 17 19 19 19 21 23 25 28 32 38 46 51 53 53 49 45 42 40 38 40 43 44 44 47 49 50 50 49 50 54 58 60 61 60 58 56 56 55 56 57 58 59 61 61 62 63 65 66 67 70 73 76 80 84 85 86 85 86 87 86 83 79 74 70 66 62
29 27 28 30 35 38 35 37 47 60 66 59 52 49 39 29 26 29 31 27 21 21 19 18 20 21 21 21 20 19 17 18 19 19 20 23 24 27 34 44 51 53 49 44 42 41 40 41 43 45 44 43 44 44 45 47 48 49 49 50 58 64 63 61 60 59 57 57 57 57 58 59 60 62 63 64 65 65 65 66 67 69 71 73 77 81 84 85 86 86 86 83 80 76 70 65 60
27 29 35 38 37 38 38 36 37 47 58 59 62 61 42 26 26 29 28 23 19 19 18 18 21 21 22 21 19 17 18 19 18 20 23 24 26 34 46 53 51 46 42 41 44 48 48 48 52 56 53 49 49 48 47 49 49 48 49 53 61 66 63 59 59 62 60 56 56 58 59 61 62 63 64 65 67 66 65 65 66 67 68 70 73 76 80 82 84 84 84 83 82 78 73 68 64
27 34 39 40 43 46 48 45 34 34 46 51 60 70 53 29 23 23 22 20 18 16 18 23 22 20 21 20 18 17 17 19 20 23 26 25 30 44 53 50 44 43 45 46 49 53 53 52 56 61 60 57 56 53 52 52 51 51 50 51 60 66 65 64 64 68 70 62 57 57 59 62 63 64 65 67 68 68 67 65 66 67 68 69 72 75 77 78 79 80 81 82 82 80 77 72 67
Wind_Speed
2 3 4 6 7 7 6 5 5 4 6 9 8 8 6 2 3 5 7 6 3 3 5 3 3 1 4 5 7 10 8 9 9 9 6 3 2 3 4 7 6 6 11 14 14 23 27 23 22 22 21 20 19 18 17 16 16 15 15 15 14 14 15 15 14 15 14 13 13 14 12 12 13 13 12 12 12 12 11 11 11 11 10 11 12 10 10 10 8 7 7 7 7 6 5 5 5
2 4 5 6 7 7 5 4 5 6 7 9 8 8 4 3 3 7 7 5 4 4 3 3 4 3 5 5 7 9 8 11 12 11 4 4 1 1 3 7 7 7 11 13 14 20 24 23 23 23 21 20 19 18 17 16 16 15 15 15 14 13 15 15 14 15 14 13 14 14 12 12 13 12 13 13 12 12 11 11 11 11 11 12 11 10 11 10 9 8 8 8 7 7 6 5 5
4 6 6 7 7 6 4 4 6 7 8 9 8 3 2 2 6 6 6 7 6 4 3 4 3 3 4 5 6 7 8 9 8 8 4 4 3 1 2 7 8 8 10 13 14 19 22 23 25 23 22 21 19 18 17 17 16 16 16 15 15 14 15 15 14 15 14 14 14 14 13 13 13 12 13 13 13 12 12 12 11 11 11 12 11 10 11 11 9 9 9 8 8 7 6 5 5
6 6 7 7 6 5 5 5 7 8 8 8 7 1 5 5 5 6 7 7 5 5 4 5 3 1 3 8 7 7 8 7 4 3 5 4 5 3 2 8 10 9 10 13 14 18 19 22 26 23 22 20 19 18 17 17 16 16 16 16 15 15 15 15 15 15 14 14 14 14 14 14 13 13 13 13 13 12 12 12 11 12 12 12 12 11 12 11 10 10 10 8 8 8 7 6 5
5 6 7 7 5 3 5 6 7 8 8 7 7 2 5 5 6 6 7 7 5 6 4 4 3 1 3 8 5 4 7 5 4 4 5 3 4 4 4 7 9 9 10 12 14 16 17 22 26 23 22 20 19 18 17 17 16 17 17 16 16 16 15 15 15 15 15 15 15 15 14 14 14 13 14 13 13 13 12 12 12 12 12 12 13 12 12 11 10 10 10 9 9 8 8 6 5
5 6 7 7 4 2 4 6 7 8 9 9 9 6 4 6 7 7 9 8 4 4 3 2 3 4 6 6 4 6 8 7 4 5 4 4 5 6 7 7 8 9 9 11 13 14 15 21 25 23 21 20 18 17 17 16 16 17 16 16 16 16 16 16 16 16 16 16 16 15 15 15 15 14 14 14 14 13 12 13 12 12 12 12 13 13 12 12 11 11 10 10 9 9 8 6 5
5 4 5 6 3 1 7 8 8 8 5 4 8 8 7 9 8 9 10 9 2 4 2 1 2 6 6 4 3 6 5 4 5 6 6 8 8 7 8 6 7 8 9 11 13 13 14 20 24 23 21 20 19 17 17 16 16 17 16 17 17 17 16 17 17 16 17 16 16 16 15 16 15 15 14 14 14 13 13 13 13 13 12 12 13 13 12 12 12 11 11 11 10 10 9 7 6
4 4 2 4 5 4 7 9 9 9 3 3 6 6 8 9 8 9 9 8 4 2 1 2 1 5 5 4 5 4 2 3 6 8 9 10 9 9 8 6 7 8 8 10 12 12 13 19 23 23 21 20 19 18 17 17 17 17 16 17 17 17 17 17 17 17 17 17 17 16 16 16 16 15 15 14 14 14 13 13 13 13 13 12 13 13 12 12 12 11 11 11 11 10 9 8 6
4 4 1 4 6 5 6 8 8 10 5 4 6 5 6 7 7 7 7 9 7 7 6 2 1 5 7 7 9 8 4 8 9 9 10 9 9 8 8 7 8 7 8 9 11 11 11 18 22 22 21 20 19 18 18 17 17 18 17 17 17 17 17 18 18 18 18 18 17 17 17 16 16 16 16 15 15 14 13 13 13 13 13 13 13 13 13 12 12 12 11 11 11 11 10 9 7
4 2 2 3 6 6 6 7 6 5 2 3 4 6 8 7 6 5 6 9 9 10 6 4 4 6 9 10 10 5 7 11 13 14 14 12 11 9 9 8 8 8 7 8 9 10 10 16 21 20 19 19 18 18 18 18 18 19 18 18 18 18 19 19 19 19 19 18 18 18 18 17 17 17 17 16 15 15 14 14 14 14 13 14 14 13 13 13 13 12 12 12 12 11 10 9 8
3 2 2 4 5 6 5 5 4 2 4 3 4 10 9 7 6 6 8 9 11 12 5 4 5 6 10 10 6 6 15 16 18 18 18 16 13 11 10 9 8 8 7 7 8 9 8 14 20 18 17 17 17 18 17 18 19 19 19 18 18 19 20 20 20 21 20 19 19 19 19 18 18 18 17 17 17 16 15 15 15 15 14 14 14 14 14 14 14 13 13 13 13 12 11 10 10
3 1 2 5 4 5 4 5 6 6 7 4 8 11 7 8 7 9 11 11 12 11 7 8 9 9 10 7 5 7 20 21 19 18 17 15 13 11 10 9 7 7 6 7 8 9 8 12 17 16 16 16 16 17 17 18 19 19 19 18 19 20 20 21 21 22 21 20 21 20 19 20 19 19 19 18 17 17 16 16 15 15 15 15 15 14 14 14 14 14 14 13 13 12 11 11 10
4 2 3 5 3 5 5 6 5 6 6 6 9 8 8 9 8 10 10 11 11 9 10 11 11 9 8 6 7 4 17 24 22 19 15 12 12 10 9 7 6 6 5 6 7 8 9 10 14 14 15 16 16 16 17 18 18 19 19 19 20 20 21 21 22 22 22 21 22 21 20 21 20 20 20 19 18 18 17 17 16 16 16 15 15 15 15 15 14 14 14 13 13 12 11 12 10
3 3 4 5 3 5 4 5 4 6 3 9 7 8 10 6 7 10 8 10 10 11 9 7 11 9 8 9 8 9 18 29 27 20 15 11 10 9 8 7 6 5 5 6 8 9 10 10 12 13 13 15 15 15 17 18 19 20 20 20 20 20 21 22 22 22 22 22 22 22 21 22 22 21 21 20 18 18 18 17 17 17 16 16 15 16 16 15 15 14 14 14 14 14 12 11 11
3 2 3 5 4 4 1 2 4 5 3 9 5 6 11 3 4 8 7 9 7 10 8 7 12 8 9 12 9 13 23 30 28 21 16 12 8 6 6 6 6 5 5 6 8 10 11 12 12 13 13 14 14 14 15 18 21 21 21 21 20 21 21 22 22 22 23 22 23 23 22 23 23 22 22 21 19 18 19 18 17 17 16 17 16 16 16 16 15 15 15 14 14 14 13 12 12
3 4 4 5 5 3 3 4 4 4 4 8 3 4 11 4 3 6 6 4 4 11 12 12 15 10 13 14 12 19 24 27 25 21 19 14 10 6 4 5 5 5 5 5 7 9 10 12 13 14 14 15 15 15 15 16 20 23 22 22 22 22 22 22 22 22 23 22 22 23 23 23 23 22 22 22 20 19 20 19 18 18 17 16 17 16 17 16 16 16 15 15 14 14 14 11 12
3 4 4 5 4 3 5 7 6 6 8 9 8 8 11 7 5 6 2 1 6 14 15 13 15 14 14 14 16 21 22 25 25 25 23 20 17 14 11 10 9 7 6 5 7 8 10 11 12 13 13 15 16 15 15 15 18 23 24 24 24 23 23 23 23 23 23 23 22 23 23 23 23 22 22 23 22 21 21 21 20 19 18 17 17 17 17 17 16 16 16 15 15 14 12 11 13
3 4 4 4 3 5 7 8 7 8 10 11 13 10 9 10 10 8 4 6 11 13 15 13 14 16 16 17 19 21 23 26 28 28 27 23 20 18 17 17 16 14 12 9 7 7 9 10 11 13 13 14 15 15 14 14 15 19 23 23 24 25 24 24 24 24 24 24 23 23 24 24 23 22 22 23 23 21 21 22 22 20 19 17 17 17 17 17 17 17 16 16 16 15 13 13 15
3 3 4 2 6 6 7 8 8 8 10 10 11 8 9 11 10 8 6 11 14 13 13 13 14 16 17 19 21 22 24 26 28 29 29 26 23 22 20 20 20 20 19 16 13 11 9 9 11 13 14 14 14 15 14 13 14 16 20 21 22 23 24 24 25 25 24 25 25 25 26 25 23 23 22 23 24 22 21 23 24 22 20 19 19 18 18 18 17 17 17 17 17 16 16 16 15
1 3 3 4 7 5 7 8 8 8 8 10 9 6 9 11 10 7 4 10 15 14 12 13 14 16 16 17 19 21 22 24 27 28 29 28 25 23 22 22 22 22 22 20 18 17 15 13 12 13 14 14 14 15 15 15 14 15 17 19 20 21 22 24 24 25 25 25 26 26 26 24 23 23 22 23 24 22 21 23 25 24 22 21 21 20 18 19 19 18 18 18 18 18 19 17 15
1 2 3 7 7 4 7 8 8 8 7 8 8 4 8 11 12 10 6 7 11 11 11 12 13 14 15 15 17 20 21 22 24 26 27 27 26 23 22 22 21 21 21 21 21 21 22 21 16 13 13 13 14 15 16 15 15 15 16 17 18 19 20 23 24 25 25 25 26 26 25 24 24 23 22 23 24 22 22 23 25 25 23 22 23 22 20 20 21 20 20 21 20 20 20 19 16
1 3 6 7 7 5 6 7 6 7 6 6 6 6 7 9 11 13 12 9 7 8 9 11 11 12 14 14 16 18 19 20 22 24 25 26 26 23 22 22 21 22 21 22 22 23 24 24 22 17 13 12 13 15 16 17 16 15 16 17 18 18 19 21 23 24 25 26 27 26 25 24 24 24 23 23 24 22 22 23 25 26 25 23 24 23 21 21 22 22 22 23 22 21 22 21 18
2 5 6 6 6 5 4 4 4 5 7 7 5 6 7 10 11 12 14 12 8 7 8 8 10 11 13 14 15 16 17 18 20 21 22 24 25 24 22 22 22 22 22 22 22 23 24 24 25 23 17 13 13 14 15 17 17 17 17 17 18 19 19 20 21 23 24 26 27 27 27 26 26 26 25 24 25 24 23 23 25 26 26 25 25 25 23 22 23 22 22 23 22 21 22 21 19
1 4 5 4 3 3 2 2 3 5 8 7 5 7 8 10 10 9 12 11 8 7 6 7 8 10 12 13 14 15 16 17 19 20 20 21 23 23 22 21 21 21 21 22 21 22 24 25 25 24 22 19 15 13 13 14 16 17 18 18 19 20 20 20 20 21 23 25 27 28 28 28 28 27 27 27 27 25 23 23 24 25 26 25 25 25 23 22 22 22 21 21 21 21 21 21 19
2 3 3 2 1 2 2 1 4 6 6 6 8 10 10 11 11 10 10 8 7 6 5 6 7 9 10 12 13 14 15 16 18 19 19 19 21 22 22 21 21 22 22 22 21 21 23 24 24 25 24 23 20 15 12 12 13 15 17 18 20 21 22 22 21 21 23 23 25 28 28 29 29 28 28 28 27 25 24 23 23 24 25 24 24 24 24 23 22 22 21 20 20 20 21 20 19
3 1 1 3 4 3 2 2 5 6 4 4 8 9 8 9 8 8 9 6 6 5 5 5 6 8 9 10 12 12 13 15 17 18 18 18 20 22 22 22 21 21 22 21 21 21 22 22 22 24 24 23 22 19 15 13 13 14 15 17 19 20 22 23 23 23 23 23 25 26 27 28 28 28 29 29 27 24 23 23 23 23 24 24 24 24 24 24 23 22 21 21 21 20 20 20 19
2 2 3 4 4 4 2 2 4 5 4 3 6 8 7 3 1 4 7 5 3 4 5 5 5 7 9 9 10 12 13 15 16 17 18 18 19 21 22 22 21 20 20 22 22 20 21 22 21 22 23 22 21 20 18 15 14 14 14 15 17 18 20 23 25 25 25 25 25 25 27 29 29 26 27 28 26 23 22 23 23 23 23 24 24 25 24 24 24 24 23 23 22 21 20 19 19
3 3 4 5 3 3 3 3 3 2 4 3 5 8 6 4 3 4 5 3 2 3 4 5 5 6 7 9 9 10 13 15 16 17 19 19 18 20 21 21 21 19 19 21 21 20 20 21 21 20 22 22 21 20 18 17 15 15 14 15 15 16 17 20 24 25 26 26 26 26 26 28 30 27 24 24 23 22 22 23 23 23 23 23 24 24 24 24 23 23 23 22 21 20 19 18 18
3 5 5 7 7 2 3 4 3 2 3 3 5 5 4 5 5 4 3 2 2 3 4 5 5 6 6 7 8 9 12 15 17 17 18 18 17 19 20 20 20 19 18 19 20 21 20 19 19 19 20 21 20 20 19 17 16 15 15 14 14 15 16 17 21 23 25 27 27 27 26 26 28 28 25 22 21 21 21 21 22 22 22 22 22 23 23 22 22 21 21 21 20 20 19 18 18
2 4 4 2 6 4 3 4 4 2 2 3 3 4 2 6 6 5 3 1 2 3 4 4 4 5 5 6 7 8 11 14 16 18 18 18 18 18 19 20 20 19 17 18 20 21 19 18 18 18 19 20 19 19 19 18 17 16 15 14 14 14 15 16 18 20 22 24 25 27 27 28 28 27 27 24 22 21 20 20 21 21 21 21 20 22 23 22 22 22 21 21 21 20 20 19 19
1 2 2 2 2 1 4 3 6 3 2 2 5 6 2 7 6 5 3 1 2 3 4 5 5 5 5 6 6 7 10 13 16 18 18 19 19 18 19 20 20 20 19 19 19 20 19 18 17 17 18 19 17 17 18 18 17 16 15 14 13 13 14 15 16 17 19 21 22 24 26 27 29 27 27 27 25 22 20 21 21 21 21 21 21 21 23 22 22 22 22 22 22 21 20 20 20
2 2 2 4 5 6 3 3 3 5 4 5 5 5 2 7 6 5 4 2 2 2 4 4 5 5 5 6 7 7 8 12 15 18 19 19 20 20 20 21 21 21 21 20 19 20 19 18 17 17 18 18 17 15 16 16 15 15 16 15 14 13 13 14 14 15 17 18 19 22 23 25 26 26 27 28 26 23 22 23 22 22 22 23 22 23 24 23 23 23 23 24 23 22 22 21 20
5 5 5 7 7 7 5 3 3 6 8 6 3 4 1 6 6 5 4 2 2 2 3 4 4 5 6 5 6 7 8 10 13 17 20 19 20 21 21 21 21 21 22 21 21 20 20 19 17 17 17 17 17 15 15 15 14 14 14 15 15 14 12 12 12 14 15 16 17 20 22 23 25 25 26 28 28 26 25 24 24 22 23 24 23 24 26 25 24 24 24 25 25 23 23 23 21
5 6 6 7 9 9 7 3 3 7 10 9 6 5 2 6 8 6 4 2 2 2 2 3 4 4 5 6 6 7 8 9 11 15 19 19 20 22 21 20 20 21 22 22 22 21 20 20 18 18 17 16 16 15 14 14 14 13 12 13 14 14 13 12 11 12 13 14 15 17 18 20 22 23 24 26 28 29 27 26 25 24 23 25 25 25 26 25 25 25 24 25 26 24 23 24 23
7 7 7 7 9 9 10 9 6 8 10 12 10 7 2 7 8 6 6 4 3 3 2 2 3 4 5 5 6 7 8 9 11 15 18 19 20 21 20 19 20 22 23 22 22 21 21 21 19 18 17 17 16 15 14 14 13 12 12 13 13 13 13 13 12 12 12 12 13 14 15 17 19 21 23 24 26 28 28 28 27 25 24 24 26 26 26 26 26 25 25 24 26 25 23 23 22
8 8 7 8 10 7 11 13 7 8 10 12 11 9 5 5 8 7 6 4 3 3 2 2 2 3 4 5 6 7 8 8 11 14 16 16 18 19 20 20 21 24 24 23 23 22 22 22 20 18 17 16 17 15 14 14 14 13 13 13 13 13 13 13 13 13 12 11 11 12 13 15 16 17 20 22 24 25 27 28 28 28 27 25 25 26 26 26 27 26 26 25 24 23 21 20 21
7 7 7 9 10 8 14 14 4 6 7 11 12 11 9 5 8 7 7 6 4 4 3 3 3 3 3 5 6 7 8 8 11 14 15 16 18 21 21 21 23 25 25 24 24 23 22 22 21 19 18 16 16 16 15 15 14 14 14 14 14 14 14 14 14 13 12 11 11 11 12 13 14 15 16 18 21 23 24 26 27 28 29 27 24 25 25 24 26 26 25 24 24 23 21 20 21
5 5 7 9 9 11 16 11 2 3 4 10 14 10 9 7 9 8 8 8 6 4 2 3 3 3 3 5 6 7 7 8 11 13 16 18 20 22 22 23 25 26 26 26 25 24 23 21 20 19 19 18 16 15 15 15 15 15 15 15 15 15 15 15 15 14 14 14 13 12 11 10 11 13 14 16 18 20 22 23 25 27 28 29 26 24 23 23 25 25 24 23 22 23 22 21 24
5 4 7 8 9 12 13 5 1 3 4 10 14 9 10 8 10 10 9 8 5 4 2 2 3 3 4 5 5 7 9 9 11 13 17 21 22 23 24 24 26 27 28 28 26 25 24 21 19 19 19 19 18 17 16 16 16 17 17 16 16 16 16 16 17 17 17 16 14 13 12 10 11 11 13 15 17 18 19 20 22 24 26 28 27 25 23 23 23 24 25 24 21 21 21 21 27
2 4 7 7 10 12 10 6 6 10 9 11 12 9 11 7 9 8 8 7 5 5 3 2 2 3 4 5 6 8 10 11 13 15 17 21 23 23 24 25 27 28 28 29 28 26 24 21 21 20 19 19 19 18 18 19 19 20 20 18 17 17 17 17 18 18 17 16 15 14 13 13 13 12 12 13 16 18 18 18 19 21 23 25 27 26 23 23 24 24 25 26 22 20 20 20 26
2 4 7 8 13 14 13 13 14 14 9 6 7 9 8 6 11 9 7 7 6 5 4 2 2 2 4 5 7 9 11 12 15 16 17 20 21 22 24 25 27 28 29 29 29 26 24 23 22 21 20 19 19 20 21 22 23 24 23 22 20 19 18 17 17 16 15 15 16 16 15 15 16 15 13 12 14 16 18 19 18 18 20 22 24 24 22 22 24 24 25 27 26 23 20 19 22
1 4 9 12 16 18 18 16 13 10 5 3 3 7 6 3 11 11 8 8 8 6 3 1 2 3 5 7 8 10 12 14 16 17 17 19 21 22 24 27 29 30 31 29 28 26 25 25 23 22 20 20 22 23 23 24 26 26 25 24 23 22 20 18 17 17 17 17 17 18 18 17 17 17 15 14 14 15 17 19 20 19 18 19 21 22 21 21 22 24 25 26 28 26 21 19 20
4 5 11 15 16 18 18 15 10 6 7 3 4 5 8 7 5 9 11 9 9 7 3 1 3 5 6 8 9 11 14 16 17 16 17 19 21 24 26 30 32 33 32 30 28 26 25 25 23 22 23 24 24 25 25 25 26 26 25 25 24 23 23 22 20 20 20 20 19 19 19 18 17 16 16 15 14 14 15 17 19 20 19 19 20 20 21 21 21 23 24 25 26 26 24 22 20
5 8 14 17 17 18 17 12 8 6 9 8 6 6 8 10 5 8 12 9 9 8 2 2 4 6 8 10 12 14 17 17 16 16 17 20 23 27 30 33 35 35 33 30 28 26 25 25 23 23 25 25 25 26 28 28 26 26 26 27 26 24 24 24 23 23 23 22 21 21 20 18 17 16 16 14 13 12 13 15 17 19 20 20 20 20 21 20 20 21 23 24 25 25 27 26 21
7 12 15 17 17 18 15 9 8 8 8 6 1 3 8 9 7 5 10 8 9 7 1 3 5 7 10 13 15 17 19 18 17 17 18 22 27 32 35 36 37 37 33 30 28 27 26 25 24 24 25 25 25 28 30 29 28 27 27 27 27 26 24 24 24 24 23 23 22 23 22 21 18 17 16 15 14 13 12 13 15 17 18 19 19 20 21 20 20 21 22 24 25 25 26 27 25
10 15 16 15 15 14 11 7 7 8 7 6 10 12 9 9 12 5 5 6 4 3 1 4 7 9 12 15 16 18 18 17 17 18 21 27 33 37 38 38 37 34 31 30 29 27 26 26 24 25 24 24 26 29 31 30 28 28 27 27 28 27 26 25 24 24 23 22 22 22 22 22 20 18 17 15 15 14 13 12 12 14 16 17 19 20 20 21 21 21 22 23 25 26 26 27 27
12 14 14 13 10 7 6 6 6 8 7 8 15 18 13 9 11 7 0 1 3 3 3 6 9 12 14 16 16 18 18 17 18 18 23 32 38 40 40 38 36 34 32 32 30 28 28 27 25 25 25 25 28 31 32 30 28 28 27 28 28 28 28 26 25 25 24 23 23 22 22 21 21 21 19 17 16 15 13 12 11 12 14 16 18 19 20 20 21 22 22 23 24 26 26 26 27
9 10 11 10 8 4 3 3 5 7 8 11 17 21 16 11 8 3 4 5 6 5 6 9 12 14 16 17 17 18 17 17 19 19 22 29 33 37 38 36 34 33 32 32 31 30 29 27 26 26 26 27 29 32 32 30 28 28 28 28 28 28 28 26 26 25 24 24 23 23 22 20 20 20 20 21 21 19 16 14 12 12 12 14 16 18 19 20 21 22 23 23 24 25 26 25 25
8 9 10 9 7 6 4 6 6 7 10 13 18 20 14 10 7 4 4 5 6 4 6 9 12 15 16 18 18 17 17 19 21 21 23 24 25 29 32 33 32 31 31 32 32 31 30 29 27 26 27 29 31 33 32 30 29 28 28 28 27 27 27 27 26 26 25 23 23 22 21 20 19 18 18 20 22 21 19 18 16 15 14 14 14 16 18 19 20 20 22 23 24 24 25 27 27
8 8 9 8 7 7 7 7 7 9 13 16 19 17 10 9 6 3 4 4 4 2 5 10 14 16 19 21 21 20 21 23 23 23 24 21 22 27 30 31 31 31 32 33 32 31 31 30 28 27 28 30 34 36 34 30 29 28 28 28 27 26 27 27 26 26 25 23 23 22 21 20 20 19 19 19 19 18 18 19 18 18 17 16 16 17 17 18 19 20 21 22 23 24 25 26 28
5 6 7 6 5 6 7 7 8 11 14 17 17 11 7 8 4 4 5 4 3 2 8 14 17 19 21 21 22 23 25 25 24 24 23 22 26 30 30 30 31 32 34 34 33 33 32 31 29 27 29 33 37 38 33 30 29 28 28 28 27 26 26 27 27 26 25 24 24 23 22 21 20 21 20 20 19 19 18 18 18 18 18 18 18 18 18 19 20 21 21 21 22 22 24 26 28
4 6 5 5 7 6 7 8 11 14 13 12 10 6 8 8 2 6 4 2 2 8 15 20 22 24 24 22 23 25 26 26 24 23 22 25 30 32 31 32 33 34 35 35 35 35 34 32 28 27 31 37 39 36 32 30 30 29 28 27 27 26 26 26 26 26 25 25 24 24 23 22 21 21 20 20 20 20 20 19 19 19 19 19 19 18 18 19 21 23 23 24 23 23 23 25 26
4 5 5 8 9 6 6 10 11 13 12 9 8 8 10 10 2 4 3 5 12 17 19 23 25 26 25 23 24 25 25 25 24 23 22 25 29 32 33 33 33 35 35 35 36 35 33 30 27 30 36 38 37 34 32 31 30 29 28 28 27 26 26 26 26 26 25 25 24 23 23 22 21 20 20 20 20 20 21 21 21 21 20 20 20 19 18 18 19 22 25 26 26 25 25 26 26
5 4 6 9 8 4 3 9 9 10 11 8 10 13 13 11 7 3 7 15 19 20 22 26 27 26 24 24 26 28 27 26 25 25 25 25 29 33 34 34 35 35 34 32 33 32 31 29 30 34 37 37 35 33 32 31 29 29 28 28 27 26 26 26 25 25 25 25 24 23 22 21 21 20 21 21 21 21 22 22 22 22 22 21 20 19 20 19 19 21 24 25 25 25 24 25 26
3 1 3 5 3 2 5 7 8 11 12 9 12 16 13 9 9 12 16 19 20 23 26 28 29 26 24 26 29 30 28 25 24 25 23 23 28 33 34 34 33 31 30 30 31 31 32 33 34 35 35 34 34 33 32 31 30 29 29 27 26 25 25 25 25 25 25 24 24 22 21 21 21 21 22 21 21 22 22 22 22 22 22 22 21 20 20 20 20 21 23 23 23 23 22 23 23
3 2 1 3 2 5 6 6 6 10 13 13 14 15 10 7 12 16 18 20 24 28 28 28 28 27 26 26 27 27 26 24 23 24 23 23 29 34 34 32 30 29 30 33 33 34 35 34 34 35 35 34 34 34 33 32 31 30 29 27 26 26 26 25 25 25 24 24 23 22 22 22 21 21 21 21 21 21 22 22 22 22 21 21 21 20 19 20 20 21 21 21 21 22 22 23 22
2 4 4 4 3 4 5 6 5 7 12 13 13 14 10 7 11 14 18 23 28 30 29 26 25 27 29 29 28 27 26 25 24 23 22 23 29 33 32 30 30 32 33 34 33 34 34 32 32 34 35 34 35 36 35 34 32 30 29 28 27 28 27 24 24 25 24 23 22 22 22 21 21 21 21 21 21 22 23 22 22 22 22 21 21 20 20 18 19 21 22 21 21 21 22 23 22
5 5 4 3 4 5 6 7 5 5 10 12 13 15 12 7 8 12 19 24 27 30 30 25 24 29 31 29 29 29 27 26 25 24 22 23 26 29 30 31 33 34 33 33 32 32 32 32 31 31 32 33 35 37 38 39 36 32 30 28 26 28 28 25 24 24 24 24 22 21 21 21 21 21 21 21 21 22 23 22 21 21 22 22 21 20 20 19 19 20 21 22 22 22 23 24 23
Wind_Direction
185 206 201 197 202 217 212 215 247 232 240 258 256 262 262 255 275 280 292 294 299 23 40 12 4 349 287 305 307 307 301 276 272 284 304 73 143 149 164 201 179 156 169 174 170 181 183 180 185 188 190 190 191 189 188 188 188 187 187 188 189 193 193 194 198 197 193 192 195 193 193 194 194 191 191 190 188 188 188 189 189 188 190 186 179 182 181 175 170 173 177 166 162 157 145 138 136
219 216 196 204 210 225 225 209 248 245 238 255 255 261 264 147 265 299 320 350 43 53 14 341 326 300 281 282 283 281 275 256 251 268 312 75 230 155 173 206 186 169 172 178 174 178 183 184 187 189 191 191 192 189 188 187 187 186 186 187 188 192 191 194 195 194 195 193 191 193 196 191 193 190 188 192 188 189 190 190 192 190 190 189 186 184 183 181 175 174 178 170 164 157 150 144 140
212 217 190 199 208 226 242 219 243 254 248 260 261 266 8 267 298 339 39 43 42 33 349 339 311 294 284 262 275 279 283 282 272 272 296 31 349 48 187 226 205 180 177 182 179 179 182 186 187 189 191 191 192 189 189 187 186 186 185 186 187 190 188 191 192 193 196 193 190 191 194 191 192 190 188 191 189 191 193 191 193 191 188 191 194 191 182 180 180 177 177 174 171 160 152 150 146
197 226 208 206 209 219 233 229 244 259 257 265 270 0 34 331 354 32 44 32 18 8 356 346 318 81 298 281 301 292 284 305 23 348 304 18 18 4 252 245 226 193 184 186 183 182 183 189 187 188 192 191 192 189 188 187 186 186 185 186 187 188 188 191 192 195 197 195 195 193 193 191 191 192 191 191 191 193 194 193 193 191 192 193 194 194 185 181 184 183 180 177 174 162 154 157 152
205 236 225 229 227 223 237 238 247 253 258 267 273 313 35 3 15 13 357 358 7 10 7 353 317 30 281 272 288 284 294 319 50 356 313 21 23 329 297 271 238 202 194 190 187 185 185 191 186 187 191 191 192 189 188 187 186 186 187 188 187 188 189 192 194 197 197 196 196 197 196 193 194 193 192 192 193 194 194 194 193 192 196 197 194 195 191 187 187 188 186 180 179 169 160 164 156
225 222 217 244 257 297 250 238 246 246 256 267 276 292 346 8 9 348 337 342 34 59 21 6 328 309 275 261 232 245 292 320 334 330 325 348 351 324 313 294 238 207 202 193 190 187 187 195 188 185 190 191 192 190 188 187 186 187 189 189 188 189 192 195 196 198 198 198 197 200 199 196 197 194 194 194 193 194 194 195 194 194 197 197 195 196 195 193 193 193 190 185 186 176 167 170 164
249 215 199 231 236 258 247 246 255 255 267 289 298 311 344 6 1 339 336 342 52 112 80 71 345 297 281 294 265 253 272 310 337 345 330 322 324 318 316 295 237 220 211 195 193 190 192 197 188 184 189 191 191 189 188 187 188 189 190 189 189 191 194 197 198 199 198 199 199 201 200 197 197 195 195 195 195 195 194 195 194 196 197 197 196 198 197 194 196 196 194 192 191 180 169 170 172
254 244 208 232 230 207 242 255 258 265 289 14 337 342 356 358 359 345 343 338 332 6 348 129 17 298 302 331 302 296 99 56 358 351 334 323 323 315 312 288 248 237 220 202 195 190 198 201 188 184 188 190 190 188 188 188 189 192 192 190 191 193 195 197 199 200 199 198 199 200 198 197 198 197 197 196 197 196 195 195 194 196 197 197 196 198 197 193 195 195 197 197 196 191 179 173 174
226 249 236 237 245 221 240 253 259 268 278 356 344 357 5 8 13 353 343 335 334 328 323 47 347 281 318 328 299 301 62 45 5 359 355 338 331 318 308 292 269 261 232 210 200 190 198 202 188 184 188 190 189 188 189 189 190 194 194 191 192 194 196 199 200 201 200 200 199 199 198 198 199 199 199 197 198 197 196 195 194 195 196 197 196 198 198 195 195 195 200 199 198 198 188 180 181
214 234 263 248 251 248 248 250 257 262 304 357 351 19 26 29 10 346 344 332 329 319 333 29 273 269 319 314 299 315 68 43 21 16 9 354 339 325 311 300 282 276 248 219 208 195 197 202 190 186 191 191 189 189 191 190 192 194 194 193 194 196 197 200 201 201 200 200 199 199 199 199 199 198 199 197 198 197 195 195 195 195 195 196 196 197 197 196 196 196 200 201 201 199 192 187 195
229 191 264 267 249 255 262 275 290 327 346 331 54 49 34 17 355 348 347 328 326 321 0 35 310 318 317 301 299 76 73 40 28 16 1 354 344 332 319 308 291 282 262 232 213 202 196 198 191 190 195 194 192 192 194 194 195 196 195 195 197 199 200 201 201 201 201 201 199 199 199 199 199 198 198 197 197 197 196 195 194 194 195 195 196 196 197 196 195 198 199 203 203 202 200 189 194
268 206 228 261 261 276 304 317 319 328 321 340 57 53 15 351 354 350 340 327 325 325 14 14 338 325 306 307 306 77 63 29 15 4 353 350 340 332 320 310 298 286 272 243 220 210 198 193 192 195 199 199 200 199 200 199 200 200 198 198 200 203 204 204 203 202 202 202 201 199 199 199 199 198 198 197 197 198 196 195 194 194 195 195 196 196 198 197 197 200 201 205 204 206 206 188 188
291 312 270 275 298 304 317 310 314 318 320 49 49 35 358 346 360 349 332 325 334 348 11 2 340 319 307 335 313 10 35 6 354 351 346 340 333 330 314 304 296 280 270 244 223 217 207 197 195 199 204 205 208 208 208 206 207 205 202 201 202 206 207 207 206 205 204 203 203 201 199 198 197 199 199 198 197 198 198 196 195 195 195 195 196 196 198 199 200 201 202 203 203 206 199 183 190
311 324 293 290 302 295 299 295 324 323 346 66 34 8 351 341 6 342 331 336 356 11 357 2 348 320 327 351 336 347 355 347 345 341 335 328 326 329 318 305 285 264 246 229 219 217 211 206 202 204 208 209 212 214 214 213 213 211 208 205 205 209 210 211 210 208 207 206 206 203 200 198 196 198 199 199 199 199 199 198 196 196 196 196 196 198 198 199 199 200 202 202 204 206 194 182 195
304 313 288 283 289 291 316 317 333 314 8 61 41 357 345 351 28 337 2 355 359 19 359 29 10 340 2 2 352 350 347 349 348 340 335 326 316 314 323 320 301 282 254 237 226 220 213 210 208 207 209 211 213 215 216 217 219 217 214 210 208 212 213 214 214 212 210 210 209 206 202 200 198 199 200 200 200 200 200 200 199 197 197 198 197 198 199 199 199 199 201 201 202 206 202 193 193
295 300 274 274 282 290 33 2 337 305 343 36 37 353 341 351 75 350 22 344 333 32 27 34 25 20 25 12 358 356 357 1 1 0 1 356 348 337 337 341 332 320 288 267 250 236 226 220 215 213 212 212 212 214 217 219 222 221 217 215 212 213 216 217 216 215 213 213 212 209 205 204 202 201 201 200 200 202 202 201 200 198 197 199 198 198 199 199 200 200 200 199 201 204 206 198 190
273 275 269 276 285 323 16 2 351 329 325 348 347 350 339 339 42 8 354 322 9 40 39 36 36 35 29 20 9 7 11 14 17 21 23 20 14 7 3 1 357 349 333 309 278 260 248 240 232 228 224 220 216 216 219 218 223 225 219 217 216 214 216 219 219 218 216 216 215 211 208 207 206 203 203 201 201 204 206 203 199 197 197 200 199 198 200 200 201 201 201 200 200 200 200 194 194
258 259 268 290 346 14 12 3 360 337 322 331 335 344 348 351 15 357 339 47 35 42 43 32 38 38 32 27 20 20 23 24 27 29 31 30 26 21 14 8 4 359 353 343 324 297 273 264 257 247 242 236 227 223 224 222 224 227 220 216 217 215 215 218 219 219 218 218 216 213 211 210 210 208 204 202 201 204 205 203 199 195 196 200 200 199 200 201 201 201 203 202 201 201 199 202 205
266 286 274 327 23 34 28 11 1 340 326 327 332 358 24 14 12 352 4 50 41 37 33 24 32 32 28 26 22 25 26 28 30 32 35 34 32 30 24 18 12 8 2 356 351 341 316 293 280 267 259 253 244 236 234 231 227 226 220 215 216 216 215 216 217 218 218 218 216 214 214 214 213 212 209 204 201 201 202 202 201 196 196 200 200 201 202 202 202 202 203 201 202 199 194 201 205
271 295 283 29 16 26 45 17 0 351 335 334 337 12 51 37 19 2 15 57 49 38 26 21 27 24 22 24 22 24 26 30 32 33 36 34 35 33 30 27 21 17 10 4 1 356 347 328 305 288 276 268 260 250 244 240 234 231 225 218 216 214 214 214 215 216 217 218 217 215 215 216 214 214 213 207 202 199 200 203 203 198 196 199 200 202 204 204 203 202 203 201 203 198 191 198 201
301 321 345 31 359 356 40 17 9 1 337 337 342 15 66 55 37 28 33 58 51 39 33 30 26 22 22 22 23 25 28 31 32 34 35 34 34 34 33 31 27 24 18 15 11 4 359 351 336 313 293 282 273 263 256 252 245 240 235 227 220 215 213 212 213 214 215 217 218 217 217 217 217 216 215 210 203 198 197 198 200 198 195 198 199 200 202 202 202 202 202 202 203 198 195 198 194
292 58 43 34 357 351 25 20 23 1 349 4 19 51 66 64 50 42 50 62 52 38 42 38 31 28 26 26 27 29 31 33 33 34 35 35 34 33 32 31 29 27 24 23 18 12 7 1 354 340 316 295 285 277 268 262 259 251 245 238 230 223 217 214 213 212 213 215 217 219 219 218 219 218 216 212 206 198 194 193 194 195 195 197 197 198 201 200 200 202 201 202 203 198 198 196 191
291 81 61 36 3 354 5 23 38 6 24 43 52 77 85 83 70 55 61 67 64 52 47 44 41 38 36 36 34 33 34 34 35 35 36 36 35 33 31 30 28 25 25 24 20 18 14 10 4 357 345 322 298 287 278 270 265 258 253 248 242 236 228 221 217 214 213 213 214 217 218 218 218 219 216 213 208 199 194 193 192 193 194 195 195 196 199 199 199 201 201 202 201 195 194 195 193
325 77 48 26 10 358 350 36 74 42 45 58 78 98 93 88 85 72 69 68 66 63 53 54 53 48 44 42 39 38 37 36 37 37 37 37 36 35 33 33 31 27 26 23 20 18 16 14 12 8 2 350 329 304 288 278 271 265 260 255 251 247 240 233 226 221 218 215 214 214 217 218 219 219 217 215 210 202 197 195 191 192 193 194 195 195 197 197 197 199 199 198 195 190 191 193 194
49 64 40 46 64 26 31 134 109 73 62 85 95 98 96 95 95 77 69 65 59 61 60 62 59 53 48 44 42 40 38 37 36 35 35 35 33 33 32 31 30 29 27 23 19 17 14 13 13 13 10 3 352 334 310 292 282 275 268 261 257 252 249 245 239 234 228 222 218 216 216 219 221 220 218 217 212 204 200 197 193 192 193 193 194 195 196 196 196 196 195 193 190 188 190 192 193
71 87 146 119 88 49 67 120 117 93 77 110 110 109 114 113 107 78 63 52 49 59 63 62 58 55 49 46 43 39 39 35 33 33 32 31 29 29 27 25 25 26 24 21 18 15 13 10 11 13 11 9 4 354 338 316 299 289 279 271 263 256 254 252 249 245 240 234 229 223 218 219 221 219 218 218 214 206 200 198 196 195 194 194 193 194 195 194 193 192 192 191 190 189 190 192 194
109 176 170 138 100 74 88 89 105 113 94 113 127 116 114 104 145 92 65 40 44 65 68 62 56 55 51 49 44 38 38 33 31 30 29 29 27 25 22 19 18 20 19 18 16 11 10 9 8 8 8 8 7 4 355 339 321 304 292 283 273 265 260 256 253 250 247 244 240 233 225 222 222 220 217 217 214 206 201 200 199 197 196 195 194 194 194 194 192 193 192 191 190 191 192 193 195
171 171 176 187 182 85 91 68 48 133 109 114 147 128 114 78 62 87 55 18 50 65 69 64 53 52 49 48 46 40 37 33 30 28 27 27 24 22 19 16 13 13 16 14 11 7 7 7 5 5 5 4 4 4 0 354 342 325 309 295 285 277 270 263 257 254 251 248 245 242 236 231 229 226 221 216 214 209 204 203 201 200 198 196 197 195 194 194 193 194 193 191 191 191 192 193 194
184 188 197 194 207 214 85 72 23 262 99 96 181 175 142 100 81 82 51 22 112 82 70 62 53 51 45 45 46 43 38 33 31 29 27 24 22 21 18 15 10 8 11 10 8 5 4 4 2 1 1 1 1 1 358 357 352 343 329 310 296 288 279 270 262 258 256 253 249 246 243 239 236 234 231 223 218 215 210 207 204 203 201 199 198 196 194 193 193 194 192 190 191 190 191 192 192
186 209 239 198 208 213 103 61 349 279 104 66 238 249 146 110 94 86 59 48 123 98 74 60 57 52 43 43 42 44 39 32 31 28 25 22 19 17 16 14 8 5 4 5 6 3 1 0 358 356 357 357 357 357 355 353 350 349 344 329 315 300 289 280 269 263 261 257 252 248 245 243 240 238 237 234 226 220 216 212 208 206 203 200 198 195 194 193 193 192 190 189 191 192 192 193 192
202 222 278 359 316 0 94 74 351 358 87 3 295 286 137 122 109 92 74 76 120 98 80 62 54 50 44 43 37 41 40 32 30 25 22 19 16 13 12 10 5 2 359 0 2 359 357 356 354 352 351 353 352 353 353 349 346 345 344 340 331 316 302 290 280 273 267 262 255 250 247 244 241 237 235 235 232 225 221 218 213 209 205 201 198 196 194 194 194 192 190 188 190 194 194 195 196
33 8 328 3 354 342 36 118 36 8 341 333 321 306 129 129 120 101 93 116 138 105 85 66 52 47 39 39 34 33 35 29 27 23 20 17 14 11 9 6 1 357 355 355 356 354 352 350 349 348 346 348 347 347 348 346 343 340 339 337 333 326 313 299 289 281 273 268 261 255 251 248 246 241 236 233 230 226 223 222 219 213 205 200 198 196 195 195 194 194 193 192 191 194 196 197 198
24 14 356 356 343 326 341 118 92 5 337 331 332 308 312 130 126 114 111 132 156 130 90 66 51 46 36 35 32 27 26 24 22 19 16 14 11 9 6 3 357 353 353 352 351 348 347 345 343 343 342 342 342 340 342 342 339 336 334 333 331 327 319 309 299 289 281 275 267 260 256 252 250 248 244 239 236 232 227 224 222 216 207 201 199 198 200 199 197 196 197 197 195 194 196 197 198
357 2 354 347 335 323 333 4 45 5 338 321 305 288 313 120 134 134 132 148 161 142 92 69 52 47 40 35 28 24 22 19 17 13 11 11 9 7 2 357 350 349 350 350 348 344 341 340 337 337 335 336 337 335 335 336 333 330 328 327 327 325 322 316 310 299 288 281 273 267 263 259 256 252 250 247 244 241 236 231 226 218 209 203 201 202 205 204 201 199 198 198 199 197 196 197 196
331 341 338 337 331 322 329 338 4 7 335 314 304 282 237 135 153 154 146 163 162 141 102 77 54 49 43 34 27 22 19 17 14 8 7 8 6 3 358 352 349 348 347 346 345 342 338 335 330 329 329 331 332 331 331 332 329 326 325 323 320 319 318 315 313 307 296 287 282 275 271 266 261 255 251 249 249 247 243 239 233 225 216 208 204 205 206 203 202 201 199 199 200 201 200 197 194
314 313 309 317 321 322 329 332 3 14 331 306 306 295 273 176 173 166 156 170 164 149 120 86 58 51 40 31 28 17 15 15 9 4 4 3 360 358 354 351 350 348 347 343 339 338 336 333 327 322 322 325 327 326 327 328 326 324 323 322 317 313 312 309 306 304 301 296 294 289 281 273 267 261 253 249 248 247 246 243 239 234 227 218 209 207 206 203 201 201 200 200 198 200 201 197 192
301 295 301 313 317 326 326 326 18 37 335 302 304 297 280 228 182 171 165 177 173 161 135 96 54 46 40 26 23 12 10 7 360 359 357 355 354 353 352 350 348 347 347 343 338 334 331 329 324 318 318 318 320 321 323 325 324 323 321 318 314 309 307 304 296 293 295 296 299 297 287 279 272 267 261 254 248 244 244 242 241 238 234 228 221 214 210 207 204 203 203 201 196 193 195 196 190
288 299 321 325 325 325 318 318 42 28 332 296 301 294 273 236 185 176 175 185 181 154 129 98 58 43 41 24 18 7 2 358 353 352 351 350 349 348 348 346 345 344 342 339 335 330 327 323 318 315 314 313 312 313 316 319 318 317 315 311 308 305 301 298 291 286 286 284 291 295 289 284 278 271 264 259 254 246 241 239 238 238 236 233 231 225 218 215 211 205 199 198 197 195 196 194 186
265 319 338 329 331 327 315 311 163 300 290 289 301 300 281 247 181 181 185 186 172 143 128 98 63 34 29 14 9 360 354 353 349 346 345 344 343 342 343 343 342 341 337 335 331 326 322 318 313 311 310 308 307 307 308 310 314 314 310 304 303 300 296 294 288 284 279 270 275 286 282 283 286 279 268 260 258 254 247 241 237 236 236 235 235 232 223 217 214 205 198 198 198 197 200 195 188
246 357 348 326 329 330 313 307 299 291 284 286 295 289 280 246 175 187 189 177 165 157 160 121 77 34 25 4 0 357 349 347 345 343 340 338 338 339 340 340 339 337 334 332 328 324 319 314 311 309 308 307 305 305 304 303 307 310 308 304 301 298 295 292 286 281 275 264 269 278 275 283 293 287 277 266 257 254 252 250 244 237 234 234 234 232 224 217 215 211 206 204 198 193 197 198 194
76 47 358 322 317 317 301 302 306 297 279 259 276 282 276 196 179 194 181 176 179 172 177 151 82 28 12 355 355 353 347 342 338 336 336 335 335 335 336 337 337 335 331 328 325 321 316 311 308 307 306 307 308 307 305 303 302 304 305 304 304 301 297 294 289 282 278 275 278 278 274 283 293 288 281 275 262 254 251 249 247 243 238 233 230 229 225 220 217 215 212 208 204 198 195 195 196
19 65 357 319 307 309 301 304 311 306 296 166 207 289 303 196 195 193 169 181 189 173 170 128 28 12 2 351 348 345 341 338 334 331 333 334 333 332 333 333 333 330 328 325 321 316 312 309 306 305 305 307 310 310 308 306 303 302 303 305 305 303 298 293 289 284 282 282 281 280 279 281 284 284 281 277 272 262 254 248 246 246 244 238 233 230 227 223 218 216 214 211 210 207 200 196 197
325 17 341 308 300 302 299 307 310 300 313 285 203 262 300 307 258 188 170 185 184 170 161 69 14 5 358 348 342 339 335 334 334 332 332 332 331 331 330 330 330 328 326 323 318 313 310 307 304 303 304 306 309 311 313 311 306 304 303 302 302 300 295 289 285 283 283 282 279 279 281 280 277 276 276 274 273 269 262 254 247 245 246 244 240 236 231 227 222 218 216 214 212 210 208 206 201
325 344 324 303 301 300 296 303 288 279 306 287 216 227 277 307 314 163 168 190 182 175 180 40 15 2 356 347 343 340 336 335 335 334 333 330 329 330 329 328 327 325 323 321 317 314 310 307 304 302 303 305 310 314 315 312 308 306 303 300 298 294 291 289 286 285 283 280 278 276 275 275 274 273 271 269 265 265 263 256 247 245 245 244 242 240 237 233 229 223 217 215 214 211 212 214 209
323 321 307 295 292 287 287 287 268 284 306 292 294 302 285 300 313 161 165 199 197 184 174 33 9 357 355 349 345 342 340 338 334 330 327 325 325 326 326 324 324 323 323 321 318 315 312 308 305 303 303 306 311 317 316 311 306 304 301 297 294 291 288 287 286 284 281 278 277 276 273 271 270 268 266 263 262 264 263 256 249 246 243 241 239 240 240 237 234 229 221 215 214 213 214 216 216
315 308 298 290 278 266 268 264 268 292 290 300 348 345 319 303 305 291 186 212 210 168 88 15 0 358 356 348 344 342 340 337 331 325 322 323 324 323 321 321 322 322 322 321 318 315 312 310 306 304 304 307 313 317 316 310 304 301 298 295 293 291 289 287 284 282 279 277 275 273 272 269 267 267 265 261 261 263 262 259 255 251 246 242 238 237 238 236 234 232 227 221 216 215 215 216 219
304 310 311 308 295 268 247 246 283 305 294 315 339 337 327 305 300 314 77 144 74 70 10 354 350 348 344 340 340 339 339 335 328 325 323 324 322 320 320 322 322 322 322 321 319 315 312 309 306 303 302 306 313 317 316 309 303 300 297 294 292 291 289 287 284 282 280 278 276 273 272 268 263 263 263 259 258 258 257 258 257 256 254 249 244 239 236 234 232 231 230 226 222 219 218 218 219
310 331 331 327 325 313 261 277 320 317 308 325 332 329 323 299 298 12 106 123 97 64 6 353 346 342 339 337 337 336 338 336 331 329 327 324 321 321 323 324 323 323 322 321 318 315 313 309 306 302 301 307 314 317 316 309 302 299 296 294 293 291 290 287 284 283 282 280 278 275 273 268 261 257 256 257 261 260 254 252 251 252 254 253 250 246 241 236 232 229 227 226 225 223 222 222 221
340 349 343 344 344 349 335 330 343 319 304 315 323 324 313 290 311 48 117 140 114 72 14 1 348 342 340 337 335 335 339 338 334 330 325 322 321 322 324 324 323 321 320 320 319 316 313 310 306 301 301 308 313 316 314 309 303 299 296 294 292 290 289 287 285 283 281 280 279 277 273 270 267 262 253 253 260 262 259 257 254 253 253 250 249 248 247 242 236 230 226 224 223 223 223 224 225
357 357 354 355 347 343 330 325 329 309 300 307 314 314 298 290 318 64 97 93 104 70 5 359 347 341 342 340 335 336 339 335 331 327 324 324 325 325 324 323 322 321 320 320 318 315 313 310 307 301 300 307 313 315 313 308 303 299 297 295 292 291 289 287 286 283 282 281 279 277 275 272 270 268 263 258 259 258 258 259 259 259 258 254 252 249 247 244 240 236 231 227 225 223 222 223 225
357 5 354 348 345 329 310 317 319 304 300 306 308 303 299 314 340 92 83 79 106 28 351 350 346 342 340 339 335 334 335 331 327 326 325 326 325 324 323 321 320 320 320 319 318 317 314 310 305 300 301 309 314 314 312 308 304 300 298 296 293 291 288 286 285 283 282 281 279 277 276 274 272 270 269 266 264 260 257 255 256 258 258 258 258 256 251 246 241 238 237 234 230 227 224 223 223
349 355 350 346 337 312 285 290 299 300 298 302 304 292 300 317 28 101 103 131 312 330 338 341 342 339 335 334 333 331 330 329 327 326 326 325 324 323 321 319 319 319 319 319 318 316 314 311 306 301 305 312 314 313 311 308 304 300 298 297 294 290 286 284 283 283 283 281 280 278 277 275 274 273 271 269 268 265 261 256 253 252 252 252 254 254 254 251 243 239 238 237 234 230 227 227 225
334 340 353 332 306 282 289 295 297 302 296 293 303 297 301 311 330 128 172 284 323 332 335 334 335 337 336 334 333 330 328 328 326 326 326 324 322 320 319 319 319 319 319 319 320 321 321 317 311 308 312 314 314 312 310 306 303 301 298 297 294 290 286 284 283 283 284 284 282 279 278 278 276 273 272 270 269 267 263 260 256 254 250 247 245 244 245 246 241 237 237 236 235 232 230 228 227
339 352 352 324 281 224 297 309 307 307 296 293 305 302 305 312 312 333 319 319 331 336 334 333 333 336 334 331 332 329 327 326 323 323 323 322 322 320 319 319 319 323 325 326 327 327 323 318 313 312 314 314 313 311 309 306 303 301 298 295 292 290 288 286 284 284 284 284 282 280 279 279 279 277 275 272 270 268 264 262 259 257 253 248 244 241 241 241 235 231 232 234 234 232 230 229 227
40 56 344 348 315 296 326 320 310 309 303 300 308 306 303 308 320 332 327 323 331 334 333 333 333 334 331 330 330 328 327 326 323 323 323 324 325 324 323 323 326 330 331 327 324 321 318 316 315 314 313 311 311 310 309 306 303 299 295 292 290 290 288 286 284 284 283 282 281 280 279 279 280 280 278 275 272 268 265 262 259 257 253 250 246 242 242 243 238 231 229 230 232 232 231 231 229
109 184 0 33 339 308 318 306 293 306 306 305 313 309 301 320 330 326 322 325 332 334 333 332 332 332 330 328 327 326 327 326 323 322 324 326 326 325 327 330 329 328 326 324 322 321 320 320 318 316 313 311 311 310 308 306 303 299 295 293 292 292 289 285 283 282 281 280 280 280 279 279 278 276 275 274 272 270 267 263 261 258 254 250 248 245 243 243 240 236 231 227 228 231 231 233 232
340 326 353 12 337 315 306 290 281 304 306 306 312 303 295 326 329 322 330 333 332 331 331 332 334 331 326 324 326 327 326 325 323 324 326 325 324 326 329 329 326 324 324 324 324 323 322 319 318 318 317 317 317 314 312 308 303 300 296 292 291 293 290 285 283 283 281 280 279 278 278 277 277 275 273 272 271 271 269 265 261 257 255 252 250 247 244 240 236 236 237 232 228 227 228 231 232
327 330 353 7 357 343 322 307 303 309 301 300 304 296 292 321 334 333 339 334 329 332 333 334 334 328 323 323 326 326 325 325 326 326 326 324 324 327 329 326 325 325 324 324 323 322 321 322 325 327 326 325 322 318 316 312 307 301 297 292 291 294 293 286 284 285 284 282 279 277 276 275 275 275 273 272 270 270 269 267 263 258 255 253 251 248 245 243 240 237 235 232 228 225 225 229 230